This is the latest recevied weather packets stored in our database for station/object N0EDB-13. If no packets are shown the sender has not sent any weather packets the latest 10 day(s).
| Time | Temp. | Humidity | Pressure | Rain* | Wind** | Luminosity | Snow |
|---|---|---|---|---|---|---|---|
| 1777663203 | 16.11° C | 23% | 1491.3 hPa | 0 mm | - | 999 W/m² | - |
| 1777662902 | 16.11° C | 22% | 1491 hPa | 0 mm | - | 999 W/m² | - |
| 1777662601 | 16.11° C | 23% | 1491.3 hPa | 0 mm | - | 999 W/m² | - |
| 1777662301 | 16.11° C | 23% | 1490.9 hPa | 0 mm | - | 999 W/m² | - |
| 1777662000 | 16.11° C | 22% | 1491.4 hPa | 0 mm | - | 999 W/m² | - |
| 1777661699 | 16.11° C | 21% | 1491.2 hPa | 0 mm | - | 999 W/m² | - |
| 1777661398 | 16.11° C | 23% | 1491.3 hPa | 0 mm | - | 997 W/m² | - |
| 1777661098 | 15.56° C | 23% | 1492.9 hPa | 0 mm | - | 999 W/m² | - |
| 1777660797 | 15.56° C | 24% | 1493.4 hPa | 0 mm | - | 999 W/m² | - |
| 1777660496 | 15° C | 25% | 1494.1 hPa | 0 mm | - | 999 W/m² | - |
| 1777660195 | 15° C | 24% | 1494 hPa | 0 mm | - | 999 W/m² | - |
| 1777659895 | 15.56° C | 23% | 1492.9 hPa | 0 mm | - | 993 W/m² | - |
| 1777659594 | 15.56° C | 24% | 1493.4 hPa | 0 mm | - | 992 W/m² | - |
| 1777659293 | 15° C | 24% | 1494.2 hPa | 0 mm | - | 990 W/m² | - |
| 1777658993 | 15° C | 26% | 1495.3 hPa | 0 mm | - | 983 W/m² | - |
| 1777658692 | 15° C | 25% | 1495.2 hPa | 0 mm | - | 972 W/m² | - |
| 1777658392 | 14.44° C | 26% | 1495.7 hPa | 0 mm | - | 972 W/m² | - |
| 1777658092 | 15.56° C | 26% | 1494.1 hPa | 0 mm | - | 968 W/m² | - |
| 1777657791 | 15.56° C | 29% | 1494.2 hPa | 0 mm | - | 958 W/m² | - |
| 1777657490 | 15.56° C | 26% | 1493.4 hPa | 0 mm | - | 954 W/m² | - |
| 1777657190 | 15.56° C | 27% | 1494.1 hPa | 0 mm | - | 944 W/m² | - |
| 1777656889 | 15° C | 27% | 1495.1 hPa | 0 mm | - | 940 W/m² | - |
| 1777656589 | 14.44° C | 28% | 1496.3 hPa | 0 mm | - | 929 W/m² | - |
| 1777656288 | 14.44° C | 27% | 1496.5 hPa | 0 mm | - | 922 W/m² | - |
| 1777655988 | 15° C | 28% | 1496 hPa | 0 mm | - | 912 W/m² | - |
* Rain latest hour (hover to see other rain measurements)
** Current wind speed in m/s (hover to see current wind gust speed)